This demonstration page uses our WeatherBlox Daily Observations layout. Learn more.

Left ArrowRight Arrow

Hourly Observations for May 26, 2015

Temp ( °F °C ) Dew Point ( °F °C ) Humidity (%) Winds ( mph kmh ) Pressure ( in mb ) Visibility ( mi km ) Precip ( " mm )
12:53 am 00:53 Clear 66 18.9 37 2.8 34 34 WSW 9 15 29.77 1008 10 16 0.00 0.00
1:53 am 01:53 Clear 63 17.2 39 3.9 41 41 WSW 9 15 29.78 1008 10 16 0.00 0.00
2:53 am 02:53 Clear 62 16.7 37 2.8 40 40 Calm 29.80 1009 10 16 0.00 0.00
3:53 am 03:53 Clear 61 16.1 40 4.4 46 46 ENE 6 9 29.80 1009 10 16 0.00 0.00
4:53 am 04:53 Clear 56 13.3 43 6.1 62 62 ENE 3 6 29.82 1010 10 16 0.00 0.00
5:53 am 05:53 Clear 54 12.2 42 5.6 64 64 Calm 29.84 1011 10 16 0.00 0.00
6:53 am 06:53 Sunny 53 11.7 43 6.1 69 69 N 8 13 29.86 1011 10 16 0.00 0.00
7:53 am 07:53 undefined 59 15 44 6.7 58 58 NNW 9 15 29.87 1012 10 16 0.00 0.00
8:53 am 08:53 Sunny 67 19.4 46 7.8 47 47 E 6 9 29.88 1012 10 16 0.00 0.00
9:53 am 09:53 Sunny 74 23.3 44 6.7 34 34 E 3 6 29.89 1012 10 16 0.00 0.00
10:53 am 10:53 Sunny N/A N/A N/A undefined N/A N/A N/A 0.00 0.00
11:53 am 11:53 Sunny 82 27.8 43 6.1 25 25 Calm 29.89 1012 10 16 0.00 0.00
12:53 pm 12:53 Sunny 84 28.9 42 5.6 23 23 VRB 3 6 29.88 1012 10 16 0.00 0.00
1:53 pm 13:53 Sunny 87 30.6 38 3.3 18 18 VRB 3 6 29.86 1011 10 16 0.00 0.00
2:53 pm 14:53 Sunny 89 31.7 34 1.1 14 14 W 7 11 29.85 1011 10 16 0.00 0.00
3:53 pm 15:53 Sunny 89 31.7 32 0 13 13 WSW 8 13 29.83 1010 10 16 0.00 0.00
4:53 pm 16:53 Sunny 88 31.1 35 1.7 15 15 S 7 11 29.83 1010 10 16 0.00 0.00
5:53 pm 17:53 Sunny 88 31.1 35 1.7 15 15 VRB 3 6 29.81 1010 10 16 0.00 0.00
6:53 pm 18:53 Sunny 89 31.7 36 2.2 15 15 SSE 7 11 29.79 1009 10 16 0.00 0.00
7:53 pm 19:53 Sunny 87 30.6 38 3.3 18 18 E 9 15 29.79 1009 10 16 0.00 0.00
8:53 pm 20:53 Clear 79 26.1 42 5.6 27 27 ESE 6 9 29.80 1009 10 16 0.00 0.00
9:53 pm 21:53 Clear 74 23.3 44 6.7 34 34 ESE 9 15 29.81 1010 10 16 0.00 0.00
10:53 pm 22:53 Clear 71 21.7 44 6.7 38 38 ESE 8 13 29.80 1009 10 16 0.00 0.00
11:53 pm 23:53 Clear 74 23.3 59 15 60 60 SE 12 19 29.83 1010 10 16 0.00 0.00

Powered by AerisWeather